Regional Weather Roundup
Issued by NWS Green Bay, WI

Home | Current Version | Previous Version | Text Only | Print | Product List | Glossary On
Versions: 1 2 3 4 5 6 7 8 9 10 11 12 13 14 15 16 17 18 19 20 21 22 23 24 25 26 27 28 29 30 31 32 33 34 35 36 37 38 39 40 41 42 43 44 45 46 47 48 49 50
000
ASUS43 KGRB 280610
RWRGRB

NORTH-CENTRAL AND NORTHEAST WISCONSIN REGIONAL WEATHER ROUNDUP
NATIONAL WEATHER SERVICE GREEN BAY WI
1200 AM CST WED JAN 28 2015

WIZ005-009-010>012-018-019-280700-
NORTH CENTRAL WISCONSIN

CITY           SKY/WX    TMP DP  RH WIND       PRES   REMARKS
IRONWOOD       CLOUDY    25  19  80 S6        30.11F
MANITOWISH WTR CLOUDY    22  20  91 S6        30.13F
ARBOR VITAE    CLOUDY    23  19  86 S6        30.14F
EAGLE RIVER    CLOUDY    22  17  83 SW5       30.15S
LAND O LAKES   CLOUDY    22  19  88 CALM      30.14F
RHINELANDER    CLOUDY    22  18  85 SW5       30.16S
PHILLIPS       CLOUDY    23  20  91 S7        30.14S
ANTIGO         CLOUDY    21  18  90 S6        30.18S
TOMAHAWK       CLOUDY    22  19  87 CALM      30.16F
MERRILL        CLOUDY    24  21  89 S3        30.18F
$$

WIZ013-073-280700-
NORTHEAST WISCONSIN

CITY           SKY/WX    TMP DP  RH WIND       PRES   REMARKS
IRON MOUNTAIN  CLOUDY    22  17  81 S5        30.18R
MARINETTE      MOCLDY    18  16  93 CALM      30.25R
OCONTO         MOCLDY    11   9  93 CALM      30.26R
$$

WIZ017-030-035>037-045-280700-
CENTRAL WISCONSIN

CITY           SKY/WX    TMP DP  RH WIND       PRES   REMARKS
MEDFORD        CLOUDY    23  21  93 S6        30.15F FOG
WAUSAU         CLOUDY    23  19  85 SE5       30.18S
MOSINEE        CLOUDY    23  23 100 S6        30.20S
MARSHFIELD     CLOUDY    25  22  88 S7        30.18S FOG
WISC RAPIDS    CLOUDY    24  19  81 S3        30.22S
STEVENS POINT  CLOUDY    22  18  83 SE5       30.21S
WAUPACA        CLOUDY    26  19  77 CALM      30.24S
SHAWANO        CLOUDY    25  18  74 CALM      30.24S
CLINTONVILLE   CLOUDY    23  18  80 CALM      30.23S
$$

WIZ038-039-048-051-280700-
FOX VALLEY

CITY           SKY/WX    TMP DP  RH WIND       PRES   REMARKS
NWS GREEN BAY  MOCLDY    15  13  91 CALM      30.26R
APPLETON       CLOUDY    23  18  80 S3        30.24S
OSHKOSH        CLOUDY    23  16  74 S3        30.23S
FOND DU LAC    CLOUDY    23  17  78 S5        30.24R
$$

WIZ022-050-052-280700-
EAST CENTRAL WISCONSIN

CITY           SKY/WX    TMP DP  RH WIND       PRES   REMARKS
STURGEON BAY   CLOUDY    16  10  79 CALM      30.26S
MANITOWOC      CLOUDY    24  18  77 W5        30.25R
SHEBOYGAN      CLOUDY    24  18  77 W5        30.24S
$$

LMZ563-521-522-541>543-280700-
LAKESHORE

STATION/POSITION TIME  TEMP    WIND        PRES    VSBY  WAVE
                       AIR SEA DIR/SP/G                  HT/PER
                 (UTC) (F)     (DEG/KT/KT) (MB)    (MI)  (FT/S)
SHEBOYGAN LKSHOR 0600   26     280/  5/  5 1025.5R
KEWAUNEE LKSHORE 0600   22     310/  3/  4 1023.3S
NORTHPORT PIER   0600   19     260/  2/  3 1024.4S
SISTER BAY LKSHO 0500   17        CALM       N/A
CHAMBERS ISLAND  0600   17     190/  3/  5 1024.0F
MENOMINEE LKSHOR 0600   19     210/  4     1024.8S
$$



USA.gov is the U.S. government's official web portal to all federal, state and local government web resources and services.